Regional Weather Roundup
Issued by NWS

Home | Current Version | Previous Version | Text Only | Print | Product List | Glossary On
Versions: 1 2 3 4 5 6 7 8 9 10 11 12 13 14 15 16 17 18 19 20 21 22 23 24 25 26 27 28
000
ASUS45 KSLC 202310
RWRUT

UTAH REGIONAL WEATHER ROUNDUP
NATIONAL WEATHER SERVICE SALT LAKE CITY UT
500 PM MDT SUN AUG 20 2017

UTZ001>011-023>025-210000-

NORTHERN UTAH

CITY           SKY/WX    TMP DP  RH WIND       PRES   REMARKS
BRIGHAM CITY   SUNNY     90  28  10 SW6       29.98F
HILL AFB       SUNNY     89  36  15 W3        30.03S
LOGAN          SUNNY     90  35  14 VRB3      29.99F
OGDEN          SUNNY     91  37  15 VRB6      29.99F
SALT LAKE CITY MOSUNNY   94  41  16 NW10      29.96F HX  90
TOOELE VALLEY  SUNNY     90  43  19 N13       29.98S
WENDOVER       SUNNY     92  35  13 SE13      29.97F
HEBER CITY     MOSUNNY   90  30  12 CALM      30.05F
WEST JORDAN    MOSUNNY   91  56  30 NW9       30.00S

$$

UTZ011>015-024>027-210000-

CENTRAL/NORTHEAST UTAH

CITY           SKY/WX    TMP DP  RH WIND       PRES   REMARKS
PROVO AIRPORT  MOSUNNY   93  36  13 VRB6      29.98F
MOAB/CANYONLAN MOSUNNY   96  31  10 W8G17     29.94F HX  90
DELTA          MOSUNNY   93  32  11 S10       30.00S
PRICE          CLOUDY    82  32  16 SW16G23   30.11F
ROOSEVELT      CLOUDY    88  37  16 CALM      30.06S
VERNAL         SUNNY     90  36  14 N8        30.05F

$$

UTZ013>016-019>022-027-210000-

SOUTHERN UTAH

CITY           SKY/WX    TMP DP  RH WIND       PRES   REMARKS
BRYCE CANYON   PTSUNNY   66  51  58 E10       30.28F
CEDAR CITY     MOSUNNY   83  44  25 NW6       30.08S
MILFORD        MOSUNNY   91  39  16 SW8G21    30.01F
ST GEORGE      PTCLDY    97  45  16 VRB5      29.88F HX  93
HANKSVILLE     MOSUNNY   91  34  13 N12G18    29.99S
BLANDING       PTSUNNY   84  35  17 W10G18    30.17S

$$

REGIONAL REPORTS     COLORADO/ARIZONA

CITY           SKY/WX    TMP DP  RH WIND       PRES   REMARKS
CRAIG, CO      CLOUDY    84  29  13 CALM      30.11R
GRAND JUNCTION SUNNY     93  31  11 NW9       29.98F
RIFLE, CO      CLOUDY    91  31  11 NW7       30.05F
MONTROSE, CO   CLOUDY    87  31  13 NW6       30.08F
CORTEZ, CO     RAIN      67  51  56 N8G28     30.18R
COLORADO CITY    N/A     88  43  20 W5        30.08S
PAGE, AZ       CLOUDY    94  38  14 VRB3      29.96F
GRAND CANYON   CLOUDY    68  49  50 N9        30.25R
KINGMAN, AZ    MOSUNNY   95  42  16 SW16G25   29.96F HX  91
FLAGSTAFF, AZ  TSTM      53  51  93 NW5       30.30R

$$

REGIONAL REPORTS    NEVADA/IDAHO/WYOMING

CITY           SKY/WX    TMP DP  RH WIND       PRES   REMARKS
LAS VEGAS, NV  MOSUNNY  100  42  13 VRB5      29.82F HX  95
ELY, NY        SUNNY     86  22   9 VRB7      30.10F
ELKO, NV       MOSUNNY   91  25   9 SW6       30.00F
POCATELLO, ID  SUNNY     85  33  15 SW16      30.03F
BURLEY, ID     SUNNY     81  41  24 W10       30.01F
FORT BRIDGER,  CLOUDY    80  31  17 N6G16     30.22S
EVANSTON, WY   CLOUDY    82  31  15 W18G26    30.19S
ROCK SPRINGS,  LGT RAIN  74  35  24 SW21      30.23R
KEMMERER, WY     N/A     79  28  15 W23       30.20F

$$




USA.gov is the U.S. government's official web portal to all federal, state and local government web resources and services.